Wind_Speed
5 6 6 7 8 8 9 10 8 4 2 2 4 6 8 8 4 5 8 9 9 9 7 7 4 5 1 4 4 3 5 4 7 8 6 5 6 5 4 7 5 5 5 10 13
6 6 6 7 8 8 9 10 8 3 0 3 2 3 7 5 3 12 11 12 8 7 3 10 5 9 4 5 5 5 5 2 2 8 10 6 8 8 6 5 5 6 12 15 13
7 6 6 7 6 7 9 9 7 2 2 2 1 6 8 5 1 3 14 10 5 3 2 2 4 2 5 6 5 3 4 2 7 9 11 10 6 3 13 5 2 7 7 12 12
7 7 6 7 7 6 7 8 6 2 2 3 3 6 6 3 2 5 12 8 5 3 1 1 1 4 4 4 5 7 7 6 2 6 8 5 5 5 4 6 8 9 11 11 11
9 8 7 7 7 7 6 6 4 1 0 2 3 6 3 3 1 9 11 9 5 4 3 2 4 5 5 6 8 8 3 6 8 11 8 11 6 7 5 7 13 13 12 9 10
12 10 8 7 7 7 5 4 2 1 1 1 2 3 2 1 3 9 11 11 9 3 8 8 3 6 7 5 6 5 9 6 8 8 4 9 4 5 5 7 8 8 7 8 9
14 12 8 6 7 6 5 2 1 1 0 2 2 2 4 1 2 7 9 12 9 5 4 9 2 6 5 8 7 9 9 7 4 3 4 10 2 3 7 8 8 8 7 7 8
16 13 9 7 6 5 2 1 2 1 1 1 2 2 2 3 3 6 5 8 10 14 16 12 16 8 5 7 4 5 5 4 4 5 5 3 4 5 9 9 9 8 7 6 6
18 15 11 8 6 4 3 4 2 1 1 1 1 2 1 2 1 4 4 4 4 8 11 9 7 5 4 7 5 1 3 4 2 6 4 4 3 6 9 9 9 8 8 7 6
19 17 12 9 7 5 5 5 4 2 3 3 2 3 0 1 1 1 2 3 2 2 3 3 5 4 2 3 5 7 4 3 5 5 5 5 3 6 9 9 11 10 9 9 8
21 18 14 11 7 7 8 4 4 3 7 1 2 4 3 1 2 3 3 2 1 2 3 1 5 6 12 6 1 5 5 6 2 2 5 7 6 10 9 8 9 9 9 8 8
23 19 14 11 8 11 10 2 2 5 5 0 2 3 2 1 2 2 4 2 2 3 3 5 3 3 5 3 1 2 5 3 2 2 2 5 9 9 12 11 10 11 9 9 7
24 21 16 12 8 11 10 5 3 5 4 2 1 3 3 3 2 1 3 1 2 3 2 5 2 1 3 3 5 3 6 5 3 2 2 2 8 7 9 7 8 9 9 8 10
26 23 18 14 6 10 7 18 2 2 4 4 4 3 3 2 2 2 3 1 2 5 4 4 1 2 4 3 2 4 3 6 8 5 3 4 5 5 11 15 13 9 9 9 9
30 27 22 20 4 8 5 15 9 1 1 3 3 2 1 4 6 3 2 1 5 3 5 2 3 2 2 2 2 3 2 6 4 2 3 2 2 7 6 11 17 12 11 10 9
33 29 23 19 7 7 11 17 7 5 7 3 4 5 5 1 2 3 1 4 3 5 7 2 0 3 3 3 1 6 6 8 5 2 2 4 6 6 6 11 7 9 12 12 10
36 33 29 17 6 14 17 7 4 5 3 6 6 8 4 5 4 4 5 4 6 5 2 2 2 2 4 6 7 3 5 3 3 3 6 3 4 9 7 8 11 19 16 13 13
41 36 30 16 10 17 10 4 6 5 8 3 5 9 7 6 3 6 7 4 6 3 4 6 4 7 3 4 7 6 5 5 7 3 4 4 6 7 5 8 7 12 15 15 12
46 36 28 23 16 18 4 7 9 8 9 10 5 5 3 4 6 4 9 7 9 10 7 5 1 1 4 2 2 5 4 4 6 2 3 4 7 10 3 2 4 11 16 16 13
35 23 17 34 22 10 2 16 5 6 8 4 9 5 9 8 7 7 11 6 6 11 3 8 4 1 1 1 1 2 4 3 3 2 4 4 4 7 7 9 7 11 17 15 13
22 6 21 39 25 3 11 8 5 5 5 8 7 6 5 9 8 7 10 2 8 6 6 5 5 1 2 7 8 2 2 1 2 4 5 2 6 7 11 13 16 15 16 18 16
12 4 30 42 6 3 11 8 5 6 3 5 5 5 9 11 7 7 12 4 9 10 10 3 5 4 7 2 2 4 6 6 4 5 3 3 7 3 2 7 12 14 14 14 14
7 4 16 27 10 12 5 7 4 8 6 7 8 4 4 9 4 7 8 0 6 9 12 9 1 3 5 3 2 6 7 4 4 3 6 4 7 2 2 2 9 12 12 13 14
4 5 2 2 1 22 22 11 15 8 5 5 6 5 5 3 0 8 4 1 4 3 6 7 3 7 9 5 6 6 7 10 7 3 4 10 13 13 7 8 8 9 13 14 16
3 4 6 9 15 17 23 14 17 13 9 10 5 8 10 5 3 4 3 2 5 2 3 5 7 5 4 3 4 4 6 17 14 20 9 18 13 26 13 13 13 14 11 13 16
4 4 2 3 12 19 18 22 30 26 17 11 11 13 8 9 9 9 8 4 6 1 5 1 2 3 2 4 3 4 8 12 19 7 15 21 22 2 8 6 8 12 15 18 19
2 4 2 9 15 18 21 35 39 25 16 25 19 13 14 7 5 7 5 9 7 11 8 6 6 3 5 2 3 5 17 17 7 7 12 15 29 5 8 11 13 14 18 21 20
Wind_Direction
283 302 316 329 335 339 340 339 347 3 32 54 67 69 27 29 62 77 45 340 332 3 19 12 46 344 296 16 13 69 79 148 171 146 159 138 97 20 26 76 50 62 98 112 85
267 289 311 320 325 330 335 338 344 349 125 119 96 14 350 342 355 56 5 342 341 358 31 43 25 360 30 6 7 67 92 89 205 150 144 115 120 132 87 81 74 77 87 93 85
256 280 298 303 310 323 333 333 336 338 185 196 323 332 330 333 27 5 346 346 357 16 37 51 335 137 60 18 339 49 116 140 13 100 114 128 73 40 129 59 144 146 123 98 84
248 264 282 296 306 315 324 328 334 323 210 254 307 326 330 347 189 340 351 353 20 57 289 35 12 76 81 48 332 94 54 81 42 86 90 94 87 67 33 137 132 120 115 104 87
245 252 268 288 300 307 319 323 328 346 66 316 335 329 335 67 334 351 5 11 44 60 53 44 87 99 110 109 57 72 78 51 89 81 75 82 88 125 101 118 112 107 98 98 93
240 250 261 278 291 303 309 312 309 137 120 357 353 346 4 57 10 7 26 35 54 69 48 45 95 110 77 58 79 107 87 85 65 82 92 110 137 85 204 145 133 119 120 109 102
233 244 248 265 286 290 299 277 206 151 96 25 40 44 65 139 34 27 51 36 42 92 66 45 74 77 114 82 108 105 77 42 102 119 127 123 120 132 172 154 146 137 141 132 127
231 240 247 251 265 276 246 227 156 128 17 50 26 61 111 56 64 42 77 63 70 92 92 69 80 88 84 115 65 79 85 117 241 140 169 103 251 194 179 154 172 166 165 156 148
222 233 240 239 251 229 188 150 136 115 58 90 71 77 9 132 77 34 49 78 61 83 89 80 70 83 54 100 58 284 181 138 227 197 153 165 235 202 175 170 186 185 183 172 168
214 223 228 229 244 198 166 143 127 78 64 87 78 49 53 185 316 27 76 59 93 101 65 68 69 94 60 85 189 189 207 147 175 223 155 195 226 203 195 181 189 192 188 181 173
206 220 217 215 217 174 155 148 72 9 45 294 130 120 137 136 56 27 14 23 221 29 119 48 92 184 196 201 126 173 146 130 131 105 157 222 218 207 213 204 194 197 189 186 176
208 212 215 209 201 176 167 236 199 149 117 74 91 66 97 158 112 25 1 129 135 132 98 37 187 178 137 163 108 28 125 98 55 156 158 227 241 207 206 215 193 190 191 184 169
202 209 206 198 197 185 180 182 45 164 95 180 183 176 171 152 82 172 3 107 117 120 148 153 168 173 148 139 126 37 158 180 158 143 347 314 284 197 227 206 198 199 186 173 166
201 203 197 180 185 184 202 194 168 283 66 209 217 207 150 162 73 321 351 98 65 141 112 102 252 180 142 121 112 148 321 131 132 120 210 132 274 239 208 208 211 195 169 169 164
201 197 193 180 135 177 183 186 198 324 351 146 153 102 59 148 133 354 328 341 130 86 110 188 144 135 112 92 21 166 117 126 126 104 69 209 77 276 159 220 219 197 181 181 173
198 195 185 187 253 168 150 155 128 56 243 166 127 154 125 143 93 126 25 32 120 81 37 82 316 56 119 31 81 138 72 43 41 59 353 211 170 268 200 223 209 196 195 175 166
197 192 185 180 179 168 158 118 59 176 280 201 175 157 159 159 146 140 155 167 152 113 162 51 20 348 127 75 353 52 90 13 349 357 221 339 168 246 232 230 199 197 189 170 165
193 185 186 178 165 166 154 63 189 213 189 158 114 111 171 153 204 166 130 201 253 129 124 155 286 174 207 193 185 186 163 160 204 197 256 355 234 251 214 246 197 188 174 157 162
182 168 169 180 183 169 106 205 203 195 158 138 75 107 210 162 139 150 168 199 204 185 159 145 195 15 52 359 127 195 197 164 103 57 56 225 272 297 206 143 144 153 158 167 164
164 155 179 176 167 139 104 224 190 150 125 148 161 150 169 181 151 183 168 206 191 186 177 181 97 342 285 4 347 178 165 84 352 168 264 279 268 249 247 212 181 172 174 169 163
155 160 162 165 139 100 213 212 204 185 141 155 178 141 163 173 170 193 195 250 179 170 138 135 108 307 99 214 181 148 233 21 141 160 188 241 253 221 230 191 198 188 182 172 170
150 176 158 151 142 189 215 171 212 186 167 190 125 110 164 165 161 197 200 231 148 142 165 162 119 164 208 273 264 194 194 162 137 234 235 147 260 227 228 224 194 191 179 175 167
168 105 169 164 176 209 192 176 241 174 181 182 187 159 162 164 129 188 194 277 197 147 162 179 187 71 349 340 328 216 200 149 121 90 210 142 262 206 282 200 202 181 178 171 161
129 125 108 236 164 199 199 196 205 178 190 158 161 107 109 106 226 166 143 349 13 78 99 108 138 163 191 186 134 200 193 177 140 135 190 227 264 256 224 222 192 190 185 172 172
174 184 169 184 213 197 190 182 201 201 207 159 188 190 166 136 80 142 106 88 16 101 66 132 190 154 230 171 179 212 177 186 195 220 196 249 218 253 218 212 207 195 165 163 173
154 157 163 164 200 195 204 212 199 208 179 202 212 185 189 165 179 181 136 191 179 74 152 48 230 111 302 234 217 232 229 195 216 252 259 262 272 163 251 178 167 182 176 182 182
109 142 180 168 187 182 202 212 211 191 218 210 196 165 194 209 124 122 114 114 138 153 172 147 135 111 251 42 63 295 214 210 192 199 217 230 244 135 223 205 209 186 189 187 188
Height
813 814 813 813 813 813 812 812 810 809 809 809 809 809 810 808 806 803 806 810 806 803 801 798 798 800 799 800 798 799 836 850 848 853 852 849 856 863 868 871 874 878 881 886 886
811 812 811 812 812 813 812 811 810 810 810 809 809 810 810 809 808 806 810 808 806 803 802 799 801 801 808 808 807 814 839 834 832 840 849 851 854 864 874 877 883 883 884 885 885
809 810 810 812 812 812 811 811 810 810 809 810 810 810 810 809 808 811 809 807 806 804 803 800 802 803 812 816 816 818 839 834 837 835 840 852 861 861 873 881 879 884 885 885 886
807 808 809 811 811 811 811 810 809 809 809 810 810 810 810 809 813 812 809 808 806 804 804 802 801 808 821 825 820 834 837 835 839 839 843 854 863 872 872 876 878 881 883 886 887
807 807 808 809 810 810 809 809 809 809 810 811 810 811 811 810 815 812 809 808 806 805 805 803 806 812 824 829 830 841 841 841 843 846 854 856 868 873 879 878 879 882 884 885 885
805 806 807 808 808 809 809 808 808 809 810 811 810 812 811 813 815 812 811 809 807 806 806 805 808 812 824 830 836 841 845 848 851 853 857 865 872 869 880 878 880 882 883 884 884
804 805 805 805 806 807 807 808 808 809 810 811 810 811 812 816 815 813 812 811 810 808 810 809 809 813 825 838 838 846 855 856 857 855 862 863 871 875 876 877 881 882 883 884 884
801 802 803 804 805 806 806 808 809 810 810 811 811 810 815 816 815 814 814 813 813 811 811 812 813 818 828 837 842 852 857 870 859 857 861 862 870 873 874 877 881 881 883 883 884
797 800 802 803 804 804 806 808 809 810 810 810 812 811 814 815 816 815 815 815 815 814 813 815 816 830 834 848 859 855 864 863 863 858 860 864 868 870 870 873 878 881 881 882 882
794 795 798 801 803 804 806 807 809 810 811 811 811 815 818 817 817 816 815 816 817 816 817 817 828 841 844 852 860 861 859 859 864 859 862 865 866 870 869 870 872 875 876 876 877
790 794 795 799 801 804 806 808 811 815 812 813 814 813 816 818 817 817 817 816 816 817 824 824 838 846 839 841 833 842 845 855 857 856 858 865 867 868 865 866 870 873 873 874 875
788 791 795 797 799 801 804 806 803 803 814 815 815 815 815 818 818 817 818 819 818 827 822 833 835 833 832 832 832 833 850 860 860 855 857 855 858 863 859 856 859 865 868 870 872
783 788 793 795 799 801 801 803 804 805 808 813 813 814 815 818 819 820 819 816 819 825 826 833 835 832 831 834 837 849 851 860 853 859 856 856 862 855 851 850 853 856 858 864 867
779 785 789 794 802 797 798 799 802 805 825 810 814 812 814 814 820 821 820 819 821 828 833 837 835 834 834 838 841 845 847 852 862 865 875 863 878 849 842 845 845 850 858 862 863
775 780 785 792 791 795 793 796 802 806 846 807 814 814 813 815 820 821 821 818 825 830 832 837 840 837 838 844 843 846 846 854 861 862 864 866 888 840 842 848 841 848 853 856 859
770 777 782 790 792 792 794 797 802 835 837 817 813 815 817 816 819 820 822 822 823 830 841 845 842 845 848 849 844 848 854 861 873 877 915 865 872 848 849 825 830 839 842 848 854
763 771 778 783 787 790 793 797 837 842 798 815 812 811 814 820 820 819 825 829 834 845 846 846 848 848 847 855 853 850 865 921 908 927 893 866 871 836 817 819 818 823 833 842 848
756 764 771 781 783 788 792 810 840 812 803 797 800 807 813 815 819 819 825 833 827 822 853 855 859 853 847 847 852 859 859 884 886 893 874 867 869 822 811 812 812 817 827 839 847
747 758 766 775 782 787 794 814 777 791 785 793 803 818 817 810 816 817 823 828 821 821 821 847 843 849 851 849 849 853 867 857 902 937 903 857 842 817 812 811 817 823 829 836 843
743 751 758 767 777 787 802 771 775 764 775 782 777 801 818 819 813 818 819 805 800 809 806 820 856 852 853 848 852 851 851 869 898 884 899 861 831 812 817 820 820 825 824 832 838
734 747 752 761 774 792 784 782 765 759 759 770 778 802 799 809 809 813 810 793 793 807 805 814 836 863 854 856 852 860 866 867 861 863 873 880 841 804 794 806 810 815 817 823 830
726 739 748 755 778 784 775 769 754 755 758 757 765 776 788 799 805 807 798 787 785 798 811 809 844 870 858 848 846 846 845 851 872 860 870 874 840 796 796 801 803 809 814 821 827
719 738 750 749 749 763 762 757 752 756 758 759 760 760 777 792 797 796 792 793 789 790 802 809 846 885 859 852 850 845 840 841 872 876 869 869 804 797 799 798 804 809 813 818 825
718 735 749 754 742 739 743 754 751 748 750 752 756 764 775 787 786 793 794 800 797 793 795 797 830 825 807 801 830 839 831 831 850 886 863 828 788 780 798 800 802 807 808 814 819
710 714 715 734 731 723 727 739 742 747 741 744 757 754 761 784 792 794 802 803 802 798 803 807 818 835 841 813 820 814 818 823 829 810 820 771 805 758 789 797 796 794 804 813 816
703 708 715 710 716 730 729 716 717 728 725 739 733 750 753 759 751 781 791 795 786 810 814 815 824 827 832 823 821 823 812 820 812 818 815 798 796 771 772 782 792 793 798 800 809
700 703 702 697 709 716 707 685 683 710 718 707 723 735 744 743 753 750 763 774 781 794 814 817 827 838 833 824 844 838 809 799 805 815 793 795 751 766 773 775 780 787 788 789 796